Regional Weather Roundup
Issued by NWS Sioux Falls, SD

Home | Current Version | Previous Version | Text Only | Print | Product List | Glossary On
Versions: 1 2 3 4 5 6 7 8 9 10 11 12 13 14 15 16 17 18 19 20 21 22 23 24 25 26 27 28 29 30 31 32 33 34 35 36 37 38 39 40 41 42 43 44 45 46 47 48 49 50
000
ASUS43 KFSD 301610
RWRFSD

WEATHER ROUNDUP FOR SE SOUTH DAKOTA/SW MINNESOTA/NW IOWA
NATIONAL WEATHER SERVICE SIOUX FALLS SD
1100 AM CDT TUE AUG 30 2016

NOTE: "FAIR" INDICATES FEW OR NO CLOUDS BELOW 12,000 FEET WITH NO
SIGNIFICANT WEATHER AND OR OBSTRUCTIONS TO VISIBILITY.


SDZ038>040-050-052>070-301700-
SOUTHEAST SOUTH DAKOTA

CITY           SKY/WX    TMP DP  RH WIND       PRES   REMARKS
BROOKINGS      CLOUDY    70  65  84 E3        30.24R
CHAMBERLAIN    MOSUNNY   78  70  76 SE9       30.21S
HURON          MOSUNNY   78  67  68 E8        30.20F
MADISON        CLOUDY    72  72 100 SE5       30.24R
MITCHELL       SUNNY     78  67  68 SE10      30.21
SIOUX FALLS    PTSUNNY   74  68  81 SW5       30.22R
WINNER         FAIR      81  67  62 SE10      30.21S
YANKTON        CLOUDY    72  64  78 S5        30.20S
$$

MNZ071-072-080-081-089-090-097-098-301700-
SOUTHWEST MINNESOTA

CITY           SKY/WX    TMP DP  RH WIND       PRES   REMARKS
FAIRMONT       CLOUDY    69  65  86 NE7       30.24R
JACKSON        MOSUNNY   73  64  73 NE8       30.25R
LUVERNE        CLOUDY    72  64  78 S3        30.23R
MARSHALL       CLOUDY    67  65  93 N8        30.24R
MONTEVIDEO     CLOUDY    73  61  64 E8        30.25R
REDWOOD FALLS  CLOUDY    72  67  84 NE7       30.22R
TRACY          CLOUDY    71  68  89 N3        30.24R
WINDOM         MOSUNNY   72  64  78 N8        30.24S
WORTHINGTON    CLOUDY    73  66  78 CALM      30.25R
$$

IAZ001>003-012>014-020>022-031-032-NEZ013-014-SDZ071-301700-
NORTHWEST IOWA

CITY           SKY/WX    TMP DP  RH WIND       PRES   REMARKS
CHEROKEE       MOSUNNY   70  68  93 CALM      30.20S
DENISON        PTSUNNY   70  68  94 SW8       30.16F
ESTHERVILLE    CLOUDY    70  67  90 N8        30.23R
LE MARS        CLOUDY    73  68  83 SW7       30.21S
ORANGE CITY    CLOUDY    72  68  88 CALM      30.22R
SHELDON        MOSUNNY   75  70  83 S6        30.20S
SIOUX CITY     CLOUDY    72  68  87 S6        30.21S
SPENCER        PTSUNNY   73  67  81 W8        30.21S
STORM LAKE       N/A     72  68  88 NW8       30.21R
$$

ABBREVIATIONS USED IN REMARKS
   TC - TEMPERATURE IN CELSIUS
  WCI - WIND CHILL INDEX
   HX - HEAT INDEX
  VSB - VISIBILITY





USA.gov is the U.S. government's official web portal to all federal, state and local government web resources and services.